Flag for Germany Weather past 2 weeks in Filderstadt, Baden-Württemberg, Germany

Now
91 °F

Passing clouds.


Feels Like: 89 °F
Forecast: 58 / 80 °F
Wind: 3 mph from South

Location: Stuttgart-Echterdingen

Current Time: Aug 31, 2015 at 5:54:59 PM

Latest Report: Aug 31, 2015 at 4:00 PM


Visibility: 37 mi

Pressure: 29.83 "Hg

Humidity: 28%

Dew point: 53 °F

Location of FilderstadtLocation

Historic Weather in Filderstadt — Graph

°F

Filderstadt temperature yesterday

Maximum temperature yesterday: 92 °F (at 4:00 PM)
Minimum temperature yesterday: 62 °F (at 7:00 AM)
Average temperature yesterday: 78 °F

Past Weeks' High & Low Weather Summary

 TemperatureHumidityPressure
High92 °F (Aug 30, 4:00 PM)97% (Aug 20, 8:00 AM)30.28 "Hg (Aug 20, 8:00 AM)
Low48 °F (Aug 26, 7:00 AM)27% (Aug 27, 3:00 PM)29.67 "Hg (Aug 24, 2:00 PM)
Average67 °F67%30.02 "Hg
* Reported Aug 16 4:00 PM — Aug 31 4:00 PM, Filderstadt, Weather by CustomWeather, © 2015

Note: Actual official high and low records may vary slightly from our data, if they occured in-between our weather recording intervals... More about our weather records

Advertising

Filderstadt weather history for previous 24 hours

 ConditionsComfort  
Time TempWeatherWind HumidityBarometerVisibility
4:00 PM
Mon, Aug 31
91 °FPassing clouds.3 mph28%29.83 "Hg37 mi
3:00 PM90 °FPassing clouds.3 mph28%29.86 "Hg37 mi
2:00 PM89 °FPassing clouds.1 mph29%29.88 "Hg37 mi
1:00 PM87 °FPassing clouds.2 mph32%29.90 "Hg34 mi
12:00 PM86 °FScattered clouds.3 mph34%29.93 "Hg31 mi
10:00 AM78 °FPassing clouds.1 mph55%29.96 "Hg28 mi
9:00 AM71 °FPassing clouds.1 mph74%29.98 "Hg31 mi
8:00 AM67 °FPassing clouds.1 mph83%29.99 "Hg31 mi
7:00 AM65 °FPassing clouds.1 mph85%30.00 "Hg37 mi
5:00 AM65 °FPassing clouds.1 mph88%29.98 "Hg25 mi
4:00 AM66 °FPassing clouds.1 mph87%29.98 "Hg25 mi
3:00 AM67 °FPassing clouds.1 mph82%29.98 "Hg28 mi
2:00 AM68 °FPassing clouds.1 mph83%29.99 "Hg28 mi
1:00 AM71 °FPassing clouds.1 mph75%30.00 "Hg28 mi
11:00 PM
Sun, Aug 30
76 °FPassing clouds.1 mph63%30.01 "Hg31 mi
10:00 PM78 °FPassing clouds.1 mph57%30.01 "Hg31 mi
9:00 PM82 °FPassing clouds.1 mph48%29.98 "Hg34 mi
8:00 PM86 °FPassing clouds.3 mph40%29.96 "Hg34 mi
7:00 PM90 °FPassing clouds.N/A36%29.96 "Hg34 mi
6:00 PM91 °FPassing clouds.1 mph34%29.95 "Hg34 mi
Weather by CustomWeather, © 2015

See weather overviewHow to use our weather pages